Main page
METAR-TAF:

METAR-TAF

Airports :

Sania Ramel Airport

Tétouan, Morocco

latitude: 35-35N, longitude: 005-20W, elevation: 10 m

Current weather observation

The report was made 34 minutes ago, at 22:00 UTC
Wind 5 kt from the East/Northeast
Temperature 23°C
Humidity 89%
Pressure 1019 hPa
Visibility: 7000 m
Few clouds at a height of 1000 ft
Scattered clouds at a height of 2000 ft

METAR: GMTN 212200Z 06005KT 7000 FEW010 SCT020 23/21 Q1019 NOSIG

Time: 23:34 (22:34 UTC)


TAF: missing

Weather observations and forecasts of more than 4000 airports (METAR and TAF reports).

The available stations are represented by yellow and red dots on the map.

Hover mouse over dot to see the name of the station.

Then click to see weather observations and forecasts.

To change the map : click on the green buttons with a black cross to zoom in, on the green button with a dash to zoom out, or on the green arrows for adjacent maps.


METAR-TAF: